• In Belarus
  • List of Countries
  • For 7 days
  • Water Temperature
  • Satellite Maps
  • Weather Map
  • Weather Widgets
  • user-avatar
    Login

    Hourly Weather Kalgoorlie

    Today, 23 January, Tuesday

    Time Temperature Precipitation Wind Pressure Humidity
    00:00 +32°C° 0.1 mm 8 mps 725 mmHg 52%
    01:00 +29°C° 0.1 mm 9 mps 725 mmHg 57%
    02:00 +29°C° 0 mm 8 mps 725 mmHg 57%
    03:00 +28°C° 0 mm 8 mps 725 mmHg 58%
    04:00 +28°C° 0 mm 7 mps 725 mmHg 59%
    05:00 +27°C° 0 mm 7 mps 725 mmHg 61%
    06:00 +29°C° 0 mm 7 mps 725 mmHg 56%
    07:00 +30°C° 0 mm 7 mps 725 mmHg 51%
    08:00 +32°C° 0 mm 7 mps 726 mmHg 45%
    09:00 +34°C° 0 mm 6 mps 726 mmHg 40%
    10:00 +35°C° 0 mm 5 mps 725 mmHg 35%
    11:00 +37°C° 0 mm 4 mps 725 mmHg 31%
    12:00 +38°C° 0 mm 3 mps 725 mmHg 29%
    13:00 +39°C° 0 mm 2 mps 724 mmHg 26%
    14:00 +40°C° 0 mm 1 mps 723 mmHg 25%
    15:00 +39°C° 0.2 mm 2 mps 723 mmHg 27%
    16:00 +39°C° 0.2 mm 3 mps 723 mmHg 28%
    17:00 +38°C° 0.2 mm 4 mps 723 mmHg 29%
    18:00 +37°C° 0.6 mm 5 mps 723 mmHg 36%
    19:00 +35°C° 0.6 mm 7 mps 723 mmHg 43%
    20:00 +33°C° 0.6 mm 8 mps 723 mmHg 50%
    21:00 +32°C° 0.6 mm 8 mps 724 mmHg 54%
    22:00 +31°C° 0.6 mm 9 mps 724 mmHg 58%
    23:00 +29°C° 0.6 mm 9 mps 725 mmHg 62%

    Tomorrow, 24 January, Wednesday

    Time Temperature Precipitation Wind Pressure Humidity
    00:00 +28°C° 0.5 mm 8 mps 724 mmHg 66%
    01:00 +27°C° 0.5 mm 8 mps 724 mmHg 69%
    02:00 +26°C° 0.5 mm 8 mps 724 mmHg 72%
    03:00 +26°C° 0.4 mm 7 mps 724 mmHg 72%
    04:00 +26°C° 0.4 mm 6 mps 723 mmHg 72%
    05:00 +26°C° 0.4 mm 5 mps 723 mmHg 72%
    06:00 +27°C° 0.3 mm 5 mps 724 mmHg 70%
    07:00 +27°C° 0.3 mm 5 mps 724 mmHg 68%
    08:00 +28°C° 0.3 mm 4 mps 724 mmHg 66%
    09:00 +29°C° 0.1 mm 5 mps 724 mmHg 62%
    10:00 +30°C° 0.1 mm 5 mps 724 mmHg 59%
    11:00 +32°C° 0.1 mm 5 mps 723 mmHg 55%
    12:00 +33°C° 0 mm 5 mps 723 mmHg 52%
    13:00 +34°C° 0 mm 5 mps 722 mmHg 49%
    14:00 +35°C° 0 mm 4 mps 721 mmHg 46%
    15:00 +35°C° 0.1 mm 5 mps 721 mmHg 45%
    16:00 +35°C° 0.1 mm 6 mps 721 mmHg 43%
    17:00 +36°C° 0.1 mm 7 mps 720 mmHg 42%
    18:00 +34°C° 2.7 mm 6 mps 720 mmHg 49%
    19:00 +32°C° 2.7 mm 6 mps 720 mmHg 56%
    20:00 +29°C° 2.7 mm 6 mps 720 mmHg 62%
    21:00 +29°C° 2.7 mm 7 mps 721 mmHg 66%
    22:00 +28°C° 2.7 mm 7 mps 721 mmHg 70%
    23:00 +27°C° 2.7 mm 7 mps 722 mmHg 74%

    Day after tomorrow, 25 January, Thursday

    Time Temperature Precipitation Wind Pressure Humidity
    00:00 +26°C° 0.9 mm 6 mps 721 mmHg 76%
    01:00 +26°C° 0.9 mm 6 mps 721 mmHg 77%
    02:00 +26°C° 0.9 mm 5 mps 721 mmHg 79%
    03:00 +25°C° 0.7 mm 5 mps 721 mmHg 80%
    04:00 +25°C° 0.7 mm 4 mps 721 mmHg 82%
    05:00 +23°C° 0.7 mm 4 mps 721 mmHg 83%
    06:00 +25°C° 0.4 mm 5 mps 721 mmHg 80%
    07:00 +26°C° 0.4 mm 5 mps 721 mmHg 76%
    08:00 +26°C° 0.4 mm 6 mps 722 mmHg 73%
    09:00 +28°C° 0 mm 5 mps 722 mmHg 65%
    10:00 +30°C° 0 mm 5 mps 721 mmHg 58%
    11:00 +33°C° 0 mm 4 mps 721 mmHg 51%
    12:00 +34°C° 0 mm 4 mps 721 mmHg 47%
    13:00 +35°C° 0 mm 4 mps 721 mmHg 44%
    14:00 +36°C° 0 mm 4 mps 720 mmHg 40%
    15:00 +37°C° 0 mm 4 mps 720 mmHg 39%
    16:00 +37°C° 0 mm 5 mps 720 mmHg 39%
    17:00 +37°C° 0 mm 5 mps 720 mmHg 38%
    18:00 +36°C° 0.3 mm 6 mps 720 mmHg 42%
    19:00 +34°C° 0.3 mm 7 mps 721 mmHg 46%
    20:00 +33°C° 0.3 mm 8 mps 721 mmHg 50%
    21:00 +32°C° 0.3 mm 8 mps 722 mmHg 56%
    22:00 +29°C° 0.3 mm 8 mps 722 mmHg 62%
    23:00 +28°C° 0.3 mm 9 mps 722 mmHg 67%

    26 January, Friday

    Time Temperature Precipitation Wind Pressure Humidity
    00:00 +27°C° 0.2 mm 8 mps 722 mmHg 71%
    01:00 +26°C° 0.2 mm 7 mps 722 mmHg 74%
    02:00 +24°C° 0.2 mm 7 mps 722 mmHg 77%
    03:00 +24°C° 0 mm 6 mps 722 mmHg 77%
    04:00 +23°C° 0 mm 6 mps 722 mmHg 78%
    05:00 +23°C° 0 mm 5 mps 722 mmHg 78%
    06:00 +25°C° 0 mm 5 mps 722 mmHg 74%
    07:00 +25°C° 0 mm 5 mps 723 mmHg 69%
    08:00 +26°C° 0 mm 5 mps 723 mmHg 65%
    09:00 +28°C° 0 mm 5 mps 723 mmHg 59%
    10:00 +30°C° 0 mm 4 mps 722 mmHg 52%
    11:00 +33°C° 0 mm 4 mps 722 mmHg 45%
    12:00 +34°C° 0 mm 3 mps 721 mmHg 42%
    13:00 +36°C° 0 mm 3 mps 721 mmHg 38%
    14:00 +37°C° 0 mm 2 mps 720 mmHg 35%
    15:00 +37°C° 0 mm 2 mps 720 mmHg 34%
    16:00 +38°C° 0 mm 2 mps 720 mmHg 33%
    17:00 +38°C° 0 mm 2 mps 720 mmHg 32%
    18:00 +38°C° 0 mm 3 mps 720 mmHg 33%
    19:00 +37°C° 0 mm 3 mps 720 mmHg 35%
    20:00 +36°C° 0 mm 4 mps 720 mmHg 37%
    21:00 +35°C° 0.5 mm 5 mps 720 mmHg 41%
    22:00 +34°C° 0.5 mm 6 mps 721 mmHg 45%
    23:00 +33°C° 0.5 mm 7 mps 721 mmHg 49%

    27 January, Saturday

    Time Temperature Precipitation Wind Pressure Humidity
    00:00 +32°C° 0.8 mm 7 mps 720 mmHg 53%
    01:00 +30°C° 0.8 mm 7 mps 720 mmHg 57%
    02:00 +29°C° 0.8 mm 7 mps 719 mmHg 62%
    03:00 +28°C° 0 mm 7 mps 719 mmHg 64%
    04:00 +27°C° 0 mm 6 mps 720 mmHg 67%
    05:00 +27°C° 0 mm 6 mps 720 mmHg 69%
    06:00 +28°C° 0 mm 6 mps 720 mmHg 64%
    07:00 +30°C° 0 mm 6 mps 720 mmHg 59%
    08:00 +33°C° 0 mm 7 mps 721 mmHg 54%
    09:00 +35°C° 0 mm 6 mps 720 mmHg 46%
    10:00 +39°C° 0 mm 6 mps 720 mmHg 38%
    11:00 +41°C° 0 mm 6 mps 720 mmHg 29%
    12:00 +42°C° 0 mm 6 mps 719 mmHg 27%
    13:00 +44°C° 0 mm 6 mps 719 mmHg 24%
    14:00 +45°C° 0 mm 5 mps 718 mmHg 22%
    15:00 +42°C° 0.2 mm 6 mps 718 mmHg 24%
    16:00 +41°C° 0.2 mm 7 mps 718 mmHg 26%
    17:00 +40°C° 0.2 mm 8 mps 718 mmHg 29%
    18:00 +37°C° 1.5 mm 9 mps 719 mmHg 41%
    19:00 +33°C° 1.5 mm 9 mps 720 mmHg 53%
    20:00 +29°C° 1.5 mm 10 mps 721 mmHg 65%
    21:00 +27°C° 0.1 mm 10 mps 721 mmHg 68%
    22:00 +26°C° 0.1 mm 10 mps 722 mmHg 72%
    23:00 +24°C° 0.1 mm 10 mps 722 mmHg 75%

    28 January, Sunday

    Time Temperature Precipitation Wind Pressure Humidity
    00:00 +23°C° 0.1 mm 10 mps 722 mmHg 75%
    01:00 +22°C° 0.1 mm 10 mps 722 mmHg 75%
    02:00 +22°C° 0.1 mm 11 mps 722 mmHg 76%
    03:00 +21°C° 0 mm 10 mps 723 mmHg 76%
    04:00 +21°C° 0 mm 10 mps 723 mmHg 77%
    05:00 +19°C° 0 mm 10 mps 723 mmHg 77%
    06:00 +21°C° 0 mm 9 mps 724 mmHg 77%
    07:00 +21°C° 0 mm 9 mps 725 mmHg 77%
    08:00 +21°C° 0 mm 8 mps 725 mmHg 77%
    09:00 +21°C° 0.1 mm 8 mps 726 mmHg 75%
    10:00 +21°C° 0.1 mm 8 mps 726 mmHg 74%
    11:00 +21°C° 0.1 mm 8 mps 726 mmHg 73%
    12:00 +22°C° 0 mm 9 mps 726 mmHg 70%
    13:00 +22°C° 0 mm 9 mps 726 mmHg 67%
    14:00 +23°C° 0 mm 10 mps 725 mmHg 63%
    15:00 +23°C° 0 mm 10 mps 726 mmHg 62%
    16:00 +23°C° 0 mm 10 mps 726 mmHg 61%
    17:00 +23°C° 0 mm 10 mps 726 mmHg 60%
    18:00 +22°C° 0 mm 10 mps 727 mmHg 61%
    19:00 +21°C° 0 mm 10 mps 727 mmHg 62%
    20:00 +19°C° 0 mm 10 mps 728 mmHg 63%
    21:00 +18°C° 0 mm 10 mps 728 mmHg 64%
    22:00 +17°C° 0 mm 10 mps 729 mmHg 66%
    23:00 +16°C° 0 mm 10 mps 729 mmHg 67%
    Show more